Location: North Evanston
(42.0634°N, 87.6976°W)
Time: 17:26:25
(UTC+00:00)

Vanguard 2 - Pass Details

Date: 18 May 2026
Orbit: 553 x 2894 km, 32.9° (Epoch: 9 June)

Event Time Altitude Azimuth Distance (km) Brightness Sun altitude
Rises 06:36:13 0° 232° (SW) 6,026 - -27.3°
Reaches altitude 10° 06:40:02 10° 227° (SW) 5,244 - -27.2°
Exits shadow 06:48:46 37° 205° (SSW) 3,822 10.4 -26.7°
Maximum altitude 06:55:31 50° 159° (SSE) 3,419 10.4 -26.4°
Drops below altitude 10° 07:11:21 10° 91° (E) 5,370 12.0 -25.4°
Sets 07:15:18 0° 86° (E) 6,176 12.5 -25.1°
